| time (UTC) | temp F | wind direction | speed knots | gust knots | rain 1hr in | rain 24hr in | rain mn in | humidity % | barometer mb |
| 20260506211512 | 67 | 219 | 2.6 | 11.3 | 0.00 | 0.08 | 0.08 | 79 | 1007.5 |
| 20260506210020 | 67 | 275 | 3.5 | 11.3 | 0.00 | 0.08 | 0.08 | 80 | 1007.4 |
| 20260506204541 | 66 | 249 | 3.5 | 13.9 | 0.00 | 0.08 | 0.08 | 81 | 1007.4 |
| 20260506203019 | 66 | 136 | 2.6 | 11.3 | 0.00 | 0.08 | 0.08 | 81 | 1007.3 |
| 20260506201514 | 66 | 264 | 4.3 | 11.3 | 0.00 | 0.08 | 0.08 | 82 | 1007.2 |
| 20260506200022 | 65 | 245 | 3.5 | 13.0 | 0.00 | 0.08 | 0.08 | 83 | 1007.6 |
| 20260506194523 | 65 | 275 | 1.7 | 8.7 | 0.00 | 0.08 | 0.08 | 83 | 1007.8 |
| 20260506193015 | 64 | 198 | 2.6 | 14.8 | 0.00 | 0.08 | 0.08 | 83 | 1007.9 |
| 20260506190023 | 64 | 248 | 1.7 | 16.5 | 0.00 | 0.08 | 0.08 | 83 | 1008.1 |
| 20260506184527 | 64 | 192 | 2.6 | 18.2 | 0.00 | 0.08 | 0.08 | 83 | 1008.1 |
| 20260506183013 | 64 | 234 | 4.3 | 13.0 | 0.00 | 0.08 | 0.08 | 83 | 1008.2 |
| 20260506180027 | 64 | 245 | 2.6 | 8.7 | 0.00 | 0.08 | 0.08 | 85 | 1008.6 |
| 20260506174528 | 64 | 219 | 0.9 | 6.1 | 0.00 | 0.08 | 0.08 | 86 | 1008.5 |
| 20260506173015 | 64 | 307 | 2.6 | 11.3 | 0.01 | 0.08 | 0.08 | 86 | 1008.6 |
| 20260506171532 | 64 | 180 | 2.6 | 7.8 | 0.02 | 0.08 | 0.08 | 87 | 1008.6 |
| 20260506170024 | 64 | 292 | 2.6 | 9.6 | 0.04 | 0.08 | 0.08 | 88 | 1008.7 |
| 20260506164527 | 63 | 208 | 2.6 | 7.8 | 0.06 | 0.08 | 0.08 | 88 | 1008.7 |
| 20260506163018 | 63 | 187 | 2.6 | 6.1 | 0.06 | 0.07 | 0.07 | 87 | 1009.2 |
| 20260506161529 | 63 | 234 | 1.7 | 6.1 | 0.06 | 0.06 | 0.06 | 86 | 1009.8 |
| 20260506160039 | 63 | 227 | 1.7 | 5.2 | 0.04 | 0.04 | 0.04 | 84 | 1010.0 |
| 20260506154531 | 64 | 237 | 0.0 | 3.5 | 0.02 | 0.02 | 0.02 | 82 | 1010.0 |
| 20260506153022 | 65 | 281 | 1.7 | 8.7 | 0.01 | 0.01 | 0.01 | 77 | 1010.0 |
| 20260506151532 | 66 | 256 | 2.6 | 8.7 | 0.00 | 0.00 | 0.00 | 73 | 1009.9 |
| 20260506150031 | 67 | 175 | 2.6 | 10.4 | 0.00 | 0.00 | 0.00 | 73 | 1009.7 |
| 20260506144526 | 67 | 181 | 2.6 | 12.2 | 0.00 | 0.00 | 0.00 | 69 | 1010.1 |
| 20260506143038 | 68 | 248 | 6.1 | 18.2 | 0.00 | 0.00 | 0.00 | 68 | 1010.0 |
| 20260506140033 | 68 | 277 | 4.3 | 9.6 | 0.00 | 0.00 | 0.00 | 69 | 1009.8 |
| 20260506133024 | 67 | 248 | 2.6 | 12.2 | 0.00 | 0.00 | 0.00 | 71 | 1010.0 |
| 20260506131528 | 67 | 202 | 2.6 | 8.7 | 0.00 | 0.00 | 0.00 | 71 | 1010.0 |
| 20260506130027 | 67 | 267 | 4.3 | 9.6 | 0.00 | 0.00 | 0.00 | 71 | 1010.1 |
| 20260506124517 | 66 | 188 | 2.6 | 9.6 | 0.00 | 0.00 | 0.00 | 72 | 1010.2 |
| 20260506123024 | 66 | 202 | 3.5 | 9.6 | 0.00 | 0.00 | 0.00 | 72 | 1010.0 |
| 20260506121526 | 66 | 242 | 3.5 | 11.3 | 0.00 | 0.00 | 0.00 | 74 | 1009.9 |
| 20260506120026 | 65 | 274 | 3.5 | 14.8 | 0.00 | 0.00 | 0.00 | 74 | 1009.9 |
| 20260506114528 | 65 | 192 | 2.6 | 9.6 | 0.00 | 0.00 | 0.00 | 74 | 1009.8 |
| 20260506113026 | 65 | 175 | 4.3 | 14.8 | 0.00 | 0.00 | 0.00 | 75 | 1009.9 |
| 20260506111525 | 65 | 197 | 4.3 | 9.6 | 0.00 | 0.00 | 0.00 | 75 | 1009.9 |
| 20260506110016 | 65 | 223 | 2.6 | 8.7 | 0.00 | 0.00 | 0.00 | 76 | 1010.0 |
| 20260506104522 | 65 | 201 | 2.6 | 12.2 | 0.00 | 0.00 | 0.00 | 77 | 1009.9 |
| 20260506103015 | 64 | 151 | 3.5 | 11.3 | 0.00 | 0.00 | 0.00 | 78 | 1009.8 |
| 20260506100021 | 64 | 251 | 2.6 | 9.6 | 0.00 | 0.00 | 0.00 | 77 | 1009.8 |
| 20260506094523 | 64 | 219 | 3.5 | 11.3 | 0.00 | 0.00 | 0.00 | 77 | 1009.6 |
| 20260506093014 | 65 | 202 | 1.7 | 8.7 | 0.00 | 0.00 | 0.00 | 77 | 1009.7 |
| 20260506090021 | 65 | 203 | 2.6 | 9.6 | 0.00 | 0.00 | 0.00 | 76 | 1009.9 |
| 20260506084529 | 65 | 205 | 3.5 | 9.6 | 0.00 | 0.00 | 0.00 | 77 | 1009.8 |
| 20260506073013 | 66 | 178 | 2.6 | 7.0 | 0.00 | 0.00 | 0.00 | 74 | 1010.0 |
| 20260506061522 | 67 | 272 | 2.6 | 8.7 | 0.00 | 0.00 | 0.00 | 72 | 1010.1 |
| 20260506044523 | 68 | 128 | 2.6 | 12.2 | 0.00 | 0.00 | 0.00 | 67 | 1010.8 |
| 20260506043025 | 68 | 184 | 2.6 | 10.4 | 0.00 | 0.00 | 0.00 | 66 | 1010.8 |
| 20260506041531 | 69 | 144 | 4.3 | 10.4 | 0.00 | 0.00 | 0.00 | 65 | 1010.9 |
| 20260506040014 | 69 | 215 | 1.7 | 13.0 | 0.00 | 0.00 | 0.00 | 64 | 1010.7 |
| 20260506034518 | 69 | 275 | 3.5 | 18.2 | 0.00 | 0.00 | 0.00 | 62 | 1010.4 |
| 20260506033027 | 69 | 233 | 3.5 | 13.0 | 0.00 | 0.00 | 0.00 | 62 | 1010.5 |
| 20260506031526 | 70 | 264 | 2.6 | 12.2 | 0.00 | 0.00 | 0.00 | 61 | 1010.6 |
| 20260506030018 | 70 | 297 | 3.5 | 8.7 | 0.00 | 0.00 | 0.00 | 60 | 1010.6 |
| 20260506024519 | 70 | 167 | 2.6 | 12.2 | 0.00 | 0.00 | 0.00 | 59 | 1010.7 |
| 20260506023023 | 70 | 248 | 2.6 | 11.3 | 0.00 | 0.00 | 0.00 | 59 | 1010.7 |
| 20260506020021 | 70 | 167 | 2.6 | 12.2 | 0.00 | 0.00 | 0.00 | 58 | 1010.7 |
| 20260506014520 | 71 | 239 | 1.7 | 12.2 | 0.00 | 0.00 | 0.00 | 58 | 1010.6 |
| 20260506013029 | 72 | 196 | 4.3 | 12.2 | 0.00 | 0.00 | 0.00 | 56 | 1010.6 |
| 20260506011509 | 73 | 174 | 4.3 | 12.2 | 0.00 | 0.00 | 0.00 | 52 | 1010.3 |
| 20260506010023 | 74 | 217 | 4.3 | 9.6 | 0.00 | 0.00 | 0.00 | 49 | 1010.1 |
| 20260506004534 | 75 | 199 | 4.3 | 13.0 | 0.00 | 0.00 | 0.00 | 45 | 1010.1 |
| 20260506003024 | 76 | 226 | 2.6 | 10.4 | 0.00 | 0.00 | 0.00 | 43 | 1009.9 |
| 20260506001513 | 76 | 273 | 3.5 | 10.4 | 0.00 | 0.00 | 0.00 | 42 | 1009.5 |
| 20260506000020 | 76 | 223 | 2.6 | 8.7 | 0.00 | 0.00 | 0.00 | 42 | 1009.5 |
| 20260505234522 | 77 | 265 | 1.7 | 8.7 | 0.00 | 0.00 | 0.00 | 42 | 1009.3 |
| 20260505233026 | 77 | 267 | 2.6 | 8.7 | 0.00 | 0.00 | 0.00 | 42 | 1009.3 |
| 20260505231516 | 77 | 175 | 1.7 | 8.7 | 0.00 | 0.00 | 0.00 | 42 | 1009.2 |
| 20260505230018 | 78 | 235 | 2.6 | 12.2 | 0.00 | 0.00 | 0.00 | 41 | 1009.1 |
| 20260505224534 | 79 | 209 | 3.5 | 15.6 | 0.00 | 0.00 | 0.00 | 38 | 1009.0 |
| 20260505223036 | 80 | 194 | 5.2 | 17.4 | 0.00 | 0.00 | 0.00 | 36 | 1008.9 |
| 20260505221520 | 80 | 262 | 7.0 | 14.8 | 0.00 | 0.00 | 0.00 | 34 | 1008.7 |
| 20260505214546 | 80 | 271 | 5.2 | 16.5 | 0.00 | 0.00 | 0.00 | 34 | 1008.7 |
| 20260505213004 | 81 | 229 | 3.5 | 15.6 | 0.00 | 0.00 | 0.00 | 33 | 1008.7 |